This is the latest recevied weather packets stored in our database for station/object WB4MOZ-3. If no packets are shown the sender has not sent any weather packets the latest 10 day(s).
| Time | Temp. | Humidity | Pressure | Rain* | Wind** | Luminosity | Snow |
|---|---|---|---|---|---|---|---|
| 1777965767 | 23.33° C | 99% | 1012.1 hPa | 0 mm | - | - | - |
| 1777965167 | 23.33° C | 99% | 1012.2 hPa | 0.25 mm | - | - | - |
| 1777964867 | 23.33° C | 99% | 1012.1 hPa | 0.25 mm | - | - | - |
| 1777964567 | 23.33° C | 99% | 1012.2 hPa | 0.25 mm | - | - | - |
| 1777964267 | 23.33° C | 99% | 1012.1 hPa | 0.25 mm | - | - | - |
| 1777963967 | 23.33° C | 99% | 1012.3 hPa | 0.25 mm | - | - | - |
| 1777963367 | 23.33° C | 99% | 1012.2 hPa | 0.51 mm | - | - | - |
| 1777963235 | 23.33° C | 99% | 1012.1 hPa | 1.27 mm | - | - | - |
| 1777963180 | 23.33° C | 99% | 1012.1 hPa | 1.27 mm | - | - | - |
| 1777963067 | 23.33° C | 99% | 1012.1 hPa | 1.27 mm | - | - | - |
| 1777962767 | 23.33° C | 99% | 1012.2 hPa | 2.29 mm | - | - | - |
| 1777962467 | 23.33° C | 99% | 1012.5 hPa | 5.08 mm | - | - | - |
| 1777962167 | 23.33° C | 99% | 1012.6 hPa | 5.08 mm | - | - | - |
| 1777961566 | 23.89° C | 98% | 1012.7 hPa | 4.83 mm | - | - | - |
| 1777961267 | 23.89° C | 98% | 1012.8 hPa | 4.83 mm | - | - | - |
| 1777960966 | 23.89° C | 98% | 1012.9 hPa | 4.83 mm | - | - | - |
| 1777960667 | 23.89° C | 96% | 1013 hPa | 4.83 mm | - | - | - |
| 1777960367 | 24.44° C | 96% | 1012.9 hPa | 4.83 mm | - | - | - |
| 1777960067 | 24.44° C | 96% | 1012.8 hPa | 4.83 mm | - | - | - |
| 1777959767 | 24.44° C | 95% | 1012.7 hPa | 4.57 mm | - | - | - |
| 1777959467 | 24.44° C | 94% | 1012.8 hPa | 3.81 mm | - | - | - |
| 1777959166 | 24.44° C | 91% | 1013.2 hPa | 2.79 mm | - | - | - |
| 1777958867 | 25° C | 90% | 1013.2 hPa | 0 mm | - | - | - |
| 1777958566 | 25° C | 88% | 1013.2 hPa | 0 mm | - | - | - |
| 1777958267 | 25° C | 85% | 1013.1 hPa | 0 mm | - | - | - |
* Rain latest hour (hover to see other rain measurements)
** Current wind speed in m/s (hover to see current wind gust speed)